Regional Weather Roundup
Issued by NWS

Home | Current Version | Previous Version | Text Only | Print | Product List | Glossary On
Versions: 1 2 3 4 5 6 7 8 9 10 11 12 13 14 15 16 17 18 19 20 21 22 23 24 25 26 27 28 29 30 31 32 33 34 35 36 37 38 39 40 41 42 43 44 45 46 47 48 49 50
000
ASUS45 KABQ 251910
RWRNM
WEATHER ROUNDUP FOR NEW MEXICO
NATIONAL WEATHER SERVICE ALBUQUERQUE NM
100 PM MDT SAT OCT 25 2014

NOTE: "FAIR" MEANS FEW OR NO CLOUDS BELOW 12,000 FEET AGL WITH NO
       SIGNIFICANT WEATHER OR OBSTRUCTIONS TO VISION.

      THIS PRODUCT IS RELEASED AS TWO VERSIONS.  ONE VERSION NEAR
      THE TOP OF THE HOUR CONTAINING PRELIMINARY DATA FROM ALBUQUERQUE
      AND OTHER STATIONS.  A FINAL VERSION WITH ADDITIONAL DATA IS
      ISSUED ABOUT 10 MINUTES AFTER THE HOUR.

NMZ501-503-504-510>518-252000-
NORTHWEST PLATEAU/NORTHCENTRAL MOUNTAINS

CITY           SKY/WX    TMP DP  RH WIND       PRES   REMARKS
FARMINGTON     SUNNY     71  29  21 VRB5      30.27F
LOS ALAMOS     SUNNY     67  22  18 SE6       30.37F
SANTA FE       SUNNY     72  22  15 SW9       30.32F
TAOS           SUNNY     70  21  16 W3        30.35F
ANGEL FIRE     FAIR      72   6   7 W13G18    30.39F

$$
NMZ402-403-502-505>509-252000-
WESTCENTRAL MOUNTAINS/SOUTHWEST MOUNTAINS

CITY           SKY/WX    TMP DP  RH WIND       PRES   REMARKS
GALLUP         SUNNY     72  38  29 SW12      30.34F
GRANTS         SUNNY     73  30  20 CALM      30.35F
SILVER CITY    SUNNY     75  41  29 S6        30.32F

$$
NMZ407-409-411-412-252000-
SOUTHERN DESERTS

CITY           SKY/WX    TMP DP  RH WIND       PRES   REMARKS
LORDSBURG      FAIR      79  45  29 CALM      30.24F
DEMING         SUNNY     78  45  30 VRB5      30.24F
LAS CRUCES     SUNNY     79  43  27 SW6       30.26F
HOLLOMAN AFB   MOSUNNY   78  46  31 S3        30.21F
T OR C         SUNNY     76  44  32 SE7       30.25F

$$
NMZ519>523-252000-
CENTRAL VALLEYS/CENTRAL HIGHLANDS

CITY           SKY/WX    TMP DP  RH WIND       PRES   REMARKS
ALBUQUERQUE    SUNNY     72  38  29 SW3       30.29F
DOUBLE EAGLE   SUNNY     70  34  26 VRB5      30.31F
MORIARTY ARPT  FAIR      76  33  20 CALM      30.31F
CLINES CORNERS SUNNY     73  28  18 W15G22    30.33F
BELEN          FAIR      73  34  24 SW3       30.28F
SOCORRO        FAIR      73  42  32 CALM      30.27F

$$
NMZ524>526-539-540-252000-
SOUTHCENTRAL MOUNTAINS

CITY           SKY/WX    TMP DP  RH WIND       PRES   REMARKS
RUIDOSO        SUNNY     72  39  30 N10       30.37F

$$
NMZ527>531-252000-
NORTHEAST HIGHLANDS/NORTHEAST PLAINS

CITY           SKY/WX    TMP DP  RH WIND       PRES   REMARKS
LAS VEGAS      SUNNY     79  16   9 S13       30.28F
RATON          SUNNY     80  20  10 S10       30.22F
CLAYTON        SUNNY     83  30  14 S14       30.16F

$$
NMZ532>537-252000-
EASTCENTRAL PLAINS

CITY           SKY/WX    TMP DP  RH WIND       PRES   REMARKS
TUCUMCARI      SUNNY     86  32  14 SW16      30.13F
CANNON AFB     SUNNY     83  45  26 S10       30.18F
CLOVIS AIRPORT SUNNY     82  46  28 SW9       30.21F

$$
NMZ028-029-538-252000-
SOUTHEAST PLAINS

CITY           SKY/WX    TMP DP  RH WIND       PRES   REMARKS
ROSWELL        SUNNY     77  53  43 SE9       30.17F
CARLSBAD       SUNNY     77  54  44 SE7       30.16F
HOBBS          SUNNY     81  50  34 S10       30.20F


$$



USA.gov is the U.S. government's official web portal to all federal, state and local government web resources and services.